Hourly Data Report for June 02, 2020

All times are specified in Local Standard Time (LST). Add 1 hour to adjust for Daylight Saving Time where and when it is observed.

OTTAWA INTL A
ONTARIO
Current Station Operator: NAVCAN

45°19'00.000" N
75°40'00.000" W
114.90 m
6106001
71628
YOW

Download Data

Hourly Data (June 2020)
Hourly Data Report for June 2, 2020
TIME Temp Definition
°C
Dew Point Definition
°C
Rel Hum Definition
%
Wind Dir Definition
10's deg

Wind Spd Definition
km/h
Visibility Definition
km
Stn Press Definition
kPa
Hmdx Definition


Wind Chill Definition


Weather Definition


00:00 8.0 5.6 85 6 9 24.1 100.31     LegendNANA
01:00 8.0 5.6 85 6 12 24.1 100.26     Cloudy
02:00 7.9 5.6 85 6 8 24.1 100.25     LegendNANA
03:00 8.0 5.6 85 4 9 24.1 100.23     LegendNANA
04:00 7.9 5.7 86 5 12 24.1 100.20     Mostly Cloudy
05:00 7.8 5.8 87 5 10 24.1 100.20     LegendNANA
06:00 8.1 6.4 89 2 6 24.1 100.24     Rain
07:00 9.5 7.4 86 7 6 24.1 100.20     Cloudy
08:00 11.1 7.5 79 11 9 24.1 100.13     LegendNANA
09:00 13.3 9.0 75 8 9 24.1 100.03     LegendNANA
10:00 15.0 9.2 68 13 7 24.1 99.95     Mostly Cloudy
11:00 15.0 9.3 69 20 10 24.1 99.90     LegendNANA
12:00 15.3 10.0 71 14 8 24.1 99.82     LegendNANA
13:00 15.0 11.7 80 16 9 24.1 99.75     Rain
14:00 15.2 12.2 82 16 10 24.1 99.67     Rain
15:00 15.2 10.8 75 21 12 24.1 99.60     LegendNANA
16:00 15.2 10.2 72 19 10 24.1 99.55     Cloudy
17:00 15.0 9.9 71 20 8 24.1 99.53     LegendNANA
18:00 14.7 10.1 74 19 8 24.1 99.49     LegendNANA
19:00 14.3 10.3 77 21 5 24.1 99.46     Cloudy
20:00 13.8 10.6 81 13 7 24.1 99.38     LegendNANA
21:00 13.7 10.8 83 17 3 24.1 99.39     LegendNANA
22:00 13.4 11.1 85 13 4 24.1 99.33     Cloudy
23:00 13.5 11.2 86 6 8 16.1 99.24     LegendNANA

Notes on Data Quality.

Legend

  • E = Estimated
  • M = Missing
  • NA = Not Available*
  • [empty] = Indicates an unobserved value
Date modified: